Crescent City, CA

8:26 PM PST on January 19, 2018 (GMT -0800)
McNamara

Weather History for KCEC - October, 2011

Change the Weather History Date:

Monday, October 10, 2011

  Actual Average Record
Temperature  
Mean Temperature 60 °F 54 °F  
Max Temperature 62 °F 61 °F 81 °F (2006)
Min Temperature 57 °F 47 °F 37 °F (1961)
Degree Days  
Heating Degree Days 5 11  
Month to date heating degree days 78 110  
Since 1 July heating degree days 721 914  
Cooling Degree Days 0 0  
Month to date cooling degree days 0 0  
Year to date cooling degree days 0 0  
Growing Degree Days 10 (Base 50)    
Moisture  
Dew Point 58 °F    
Average Humidity 95    
Maximum Humidity 100    
Minimum Humidity 90    
Precipitation  
Precipitation 1.09 in 0.09 in 3.35 in (1962)
Month to date precipitation 5.58 0.74  
Year to date precipitation 41.10 39.53  
Since 1 July precipitation 6.10  
Snow  
Snow 0.00 in - - ()
Month to date snowfall 0.0  
Since 1 July snowfall 0.0  
Since 1 September snowfall 0.0  
Snow Depth 0.00 in    
Sea Level Pressure  
Sea Level Pressure 29.83 in    
Wind  
Wind Speed 12 mph (SSE)    
Max Wind Speed 18 mph    
Max Gust Speed 28 mph    
Visibility 4 miles    
Events Fog , Rain    
T = Trace of Precipitation, MM = Missing Value Source: NWS Daily Summary

Daily Weather History Graph

Daily Weather History Graph

Search for Another Location

Airport or City:

Trip Planner

Search our weather history database for the weather conditions in past years. The results will help you decide how hot, cold, wet, or windy it might be!

Date:

Astronomy

Oct. 10, 2011 Rise Set
Actual Time 7:23 AM PDT 6:43 PM PDT
Civil Twilight 6:55 AM PDT 7:11 PM PDT
Nautical Twilight 6:23 AM PDT 7:43 PM PDT
Astronomical Twilight 5:50 AM PDT 8:16 PM PDT
Moon 5:50 PM PDT (10/10) 6:09 AM PDT (10/10)
Length of Visible Light 12h 16m
Length of Day
11h 20m
Waxing Gibbous, 98% of the Moon is Illuminated
Oct 10
Waxing Gibbous
Oct 11
Full
Oct 19
Last Quarter
Oct 26
New
Nov 2
First Quarter

Hourly Weather History & Observations

Time (PDT) Temp. Dew Point Humidity Pressure Visibility Wind Dir Wind Speed Gust Speed Precip Events Conditions
12:13 AM 57.2 °F 55.4 °F 94% 29.91 in 7.0 mi SSE 10.4 mph - 0.00 in Rain Light Rain
12:28 AM 57.2 °F 55.4 °F 94% 29.91 in 4.0 mi SSE 8.1 mph - 0.01 in Rain Light Rain
12:56 AM 57.0 °F 55.9 °F 96% 29.89 in 4.0 mi SE 11.5 mph - 0.05 in Rain Light Rain
1:33 AM 57.2 °F 55.4 °F 94% 29.86 in 3.0 mi SSE 10.4 mph - 0.02 in Rain Light Rain
1:56 AM 57.9 °F 57.0 °F 97% 29.86 in 3.0 mi SSE 12.7 mph - 0.04 in Rain Light Rain
2:54 AM 59.0 °F 57.2 °F 94% 29.85 in 2.5 mi SSE 10.4 mph - 0.16 in Rain Heavy Rain
2:56 AM 59.0 °F 57.0 °F 93% 29.85 in 2.5 mi South 10.4 mph - 0.17 in Rain Heavy Rain
3:40 AM 59.0 °F 57.2 °F 94% 29.83 in 2.5 mi SSE 9.2 mph - 0.26 in Rain Heavy Rain
3:48 AM 59.0 °F 57.2 °F 94% 29.82 in 3.0 mi SSE 12.7 mph - 0.30 in Rain Heavy Rain
3:56 AM 59.0 °F 57.2 °F 94% 29.80 in 3.0 mi SE 15.0 mph - N/A Rain Heavy Rain
4:22 AM 60.8 °F 57.2 °F 88% 29.81 in 9.0 mi SSE 12.7 mph - 0.03 in Rain Light Rain
4:56 AM 60.1 °F 57.9 °F 93% 29.80 in 7.0 mi SSE 15.0 mph - 0.06 in Rain Light Rain
5:10 AM 60.8 °F 59.0 °F 94% 29.80 in 8.0 mi SSE 13.8 mph - 0.02 in Rain Light Rain
5:33 AM 62.6 °F 59.0 °F 88% 29.79 in 8.0 mi SSE 17.3 mph - 0.05 in Rain Rain
5:56 AM 62.6 °F 60.8 °F 94% 29.78 in 5.0 mi SSE 18.4 mph 27.6 mph N/A Rain Rain
6:45 AM 62.6 °F 59.0 °F 88% 29.79 in 4.0 mi SSE 15.0 mph - 0.12 in Rain Heavy Rain
6:56 AM 62.6 °F 59.0 °F 88% 29.79 in 4.0 mi SSE 17.3 mph - N/A Rain Rain
7:12 AM 60.8 °F 57.2 °F 88% 29.77 in 4.0 mi SSE 18.4 mph - 0.04 in Rain Rain
7:21 AM 60.8 °F 57.2 °F 88% 29.77 in 6.0 mi SSE 16.1 mph 26.5 mph 0.05 in Rain Light Rain
7:28 AM 60.8 °F 57.2 °F 88% 29.76 in 7.0 mi SSE 18.4 mph - 0.06 in Rain Light Rain
7:53 AM 62.6 °F 59.0 °F 88% 29.76 in 10.0 mi SSE 15.0 mph - 0.06 in   Overcast
7:56 AM 62.1 °F 59.0 °F 90% 29.76 in 10.0 mi SSE 13.8 mph - 0.06 in   Overcast
8:56 AM 61.0 °F 59.0 °F 93% 29.80 in 8.0 mi South 8.1 mph - N/A   Overcast
9:10 AM 60.8 °F 57.2 °F 88% 29.81 in 1.8 mi South 8.1 mph - 0.00 in Rain Light Rain
9:19 AM 60.8 °F 59.0 °F 94% 29.81 in 1.5 mi South 10.4 mph - 0.01 in Rain Light Rain
9:28 AM 60.8 °F 59.0 °F 94% 29.81 in 1.2 mi South 9.2 mph - 0.02 in Rain Light Rain
9:52 AM 60.8 °F 57.2 °F 88% 29.81 in 1.0 mi South 6.9 mph - 0.03 in Rain Light Rain
9:56 AM 60.1 °F 57.9 °F 93% 29.82 in 1.0 mi South 6.9 mph - 0.03 in Rain Light Rain
10:10 AM 60.8 °F 59.0 °F 94% 29.82 in 1.8 mi South 6.9 mph - N/A Rain Light Rain
10:17 AM 60.8 °F 59.0 °F 94% 29.82 in 2.0 mi South 6.9 mph - 0.01 in Rain Light Rain
10:30 AM 60.8 °F 59.0 °F 94% 29.82 in 1.8 mi South 8.1 mph - 0.01 in Rain Light Rain
10:49 AM 60.8 °F 57.2 °F 88% 29.83 in 2.5 mi South 8.1 mph - 0.02 in Rain Light Rain
10:56 AM 60.1 °F 57.9 °F 93% 29.83 in 2.0 mi South 6.9 mph - 0.02 in Rain Light Rain
11:08 AM 60.8 °F 59.0 °F 94% 29.83 in 3.0 mi SSE 11.5 mph - 0.01 in Rain Light Rain
11:26 AM 60.8 °F 57.2 °F 88% 29.83 in 2.0 mi South 13.8 mph - 0.01 in Rain Light Rain
11:56 AM 60.1 °F 57.9 °F 93% 29.84 in 3.0 mi SSE 10.4 mph - 0.02 in Rain Light Rain
12:07 PM 60.8 °F 57.2 °F 88% 29.84 in 2.0 mi SSE 10.4 mph - 0.00 in Rain Light Rain
12:17 PM 60.8 °F 57.2 °F 88% 29.84 in 1.8 mi SSE 12.7 mph - 0.00 in Rain Light Rain
12:48 PM 60.8 °F 57.2 °F 88% 29.84 in 4.0 mi SSE 11.5 mph - 0.01 in Rain Light Rain
12:56 PM 60.1 °F 57.9 °F 93% 29.84 in 4.0 mi SSE 11.5 mph - 0.01 in   Overcast
1:35 PM 60.8 °F 59.0 °F 94% 29.83 in 2.0 mi SE 13.8 mph - N/A Rain Light Rain
1:56 PM 60.8 °F 59.0 °F 94% 29.83 in 5.0 mi SSE 13.8 mph - N/A Rain Light Rain
2:31 PM 60.8 °F 59.0 °F 94% 29.82 in 10.0 mi SSE 13.8 mph - 0.00 in   Overcast
2:52 PM 60.8 °F 59.0 °F 94% 29.83 in 8.0 mi SSE 12.7 mph - 0.00 in   Overcast
2:56 PM 60.1 °F 59.0 °F 96% 29.83 in 6.0 mi SSE 13.8 mph - 0.00 in   Overcast
3:18 PM 60.8 °F 57.2 °F 88% 29.82 in 1.8 mi SSE 13.8 mph - N/A   Overcast
3:25 PM 60.8 °F 57.2 °F 88% 29.82 in 0.8 mi SSE 13.8 mph - N/A   Overcast
3:56 PM 59.0 °F 57.9 °F 96% 29.84 in 0.2 mi SSE 12.7 mph - N/A Fog Fog
4:28 PM 59.0 °F 57.2 °F 94% 29.84 in 1.2 mi SSE 10.4 mph - N/A   Overcast
4:35 PM 60.8 °F 57.2 °F 88% 29.84 in 1.5 mi SSE 11.5 mph - N/A   Overcast
4:44 PM 60.8 °F 57.2 °F 88% 29.84 in 3.0 mi SE 11.5 mph - N/A   Overcast
4:56 PM 60.1 °F 59.0 °F 96% 29.84 in 9.0 mi SSE 12.7 mph - N/A   Overcast
5:56 PM 60.1 °F 57.9 °F 93% 29.84 in 3.0 mi SE 11.5 mph - N/A   Overcast
6:22 PM 60.8 °F 57.2 °F 88% 29.84 in 2.0 mi SSE 12.7 mph - N/A   Overcast
6:36 PM 60.8 °F 57.2 °F 88% 29.83 in 1.2 mi SSE 13.8 mph - 0.00 in   Overcast
6:45 PM 60.8 °F 57.2 °F 88% 29.83 in 0.5 mi SSE 15.0 mph - 0.00 in Fog Fog
6:56 PM 59.0 °F 57.9 °F 96% 29.83 in 0.8 mi SSE 11.5 mph - 0.00 in   Mist
7:45 PM 59.0 °F 57.2 °F 94% 29.84 in 1.5 mi SSE 11.5 mph - 0.00 in Rain Light Rain
7:56 PM 59.0 °F 57.0 °F 93% 29.85 in 1.0 mi SSE 10.4 mph - 0.01 in Rain Light Rain
8:18 PM 59.0 °F 57.2 °F 94% 29.85 in 1.8 mi South 8.1 mph - 0.00 in Rain Light Rain
8:37 PM 59.0 °F 57.2 °F 94% 29.85 in 2.0 mi South 9.2 mph - 0.02 in Rain Light Rain
8:44 PM 59.0 °F 57.2 °F 94% 29.85 in 1.8 mi South 6.9 mph - 0.04 in Rain Light Rain
8:53 PM 59.0 °F 57.2 °F 94% 29.86 in 2.5 mi South 8.1 mph - 0.04 in Rain Light Rain
8:56 PM 59.0 °F 57.9 °F 96% 29.86 in 3.0 mi South 8.1 mph - 0.04 in Rain Light Rain
9:56 PM 59.0 °F 57.9 °F 96% 29.88 in 10.0 mi SSE 9.2 mph - N/A   Overcast
10:11 PM 59.0 °F 57.2 °F 94% 29.89 in 10.0 mi South 9.2 mph - N/A   Overcast
10:19 PM 59.0 °F 57.2 °F 94% 29.89 in 10.0 mi SSE 9.2 mph - N/A   Overcast
10:27 PM 59.0 °F 57.2 °F 94% 29.90 in 10.0 mi SSE 11.5 mph - N/A   Overcast
10:36 PM 59.0 °F 57.2 °F 94% 29.90 in 10.0 mi SE 13.8 mph - N/A   Overcast
10:56 PM 60.1 °F 57.0 °F 90% 29.91 in 10.0 mi South 11.5 mph 21.9 mph N/A   Overcast
11:56 PM 60.8 °F 57.2 °F 88% 29.92 in 10.0 mi SSE 11.5 mph - N/A   Overcast